Location: Winthrop
(48.4780°N, 120.1850°W)
Time: 04:59:54
(UTC-08:00)

Vanguard 1 Rocket - Pass Details

Date: 01 December 2023
Orbit: 654 x 4218 km, 34.3° (Epoch: 24 February)

Event Time Altitude Azimuth Distance (km) Brightness Sun altitude
Rises 03:26:29 0° 199° (SSW) 8,321 12.1 -39.6°
Reaches altitude 10° 03:35:12 10° 185° (S) 6,912 11.7 -38.2°
Maximum altitude 03:48:00 20° 149° (SSE) 5,150 11.3 -36.1°
Drops below altitude 10° 03:57:22 10° 110° (ESE) 4,937 11.8 -34.6°
Sets 04:01:54 0° 94° (E) 5,382 12.4 -33.8°
